{"data":{"norad_id":59565,"intl_designator":"2024-076B","name":"STARLINK-31388","alt_names":[],"object_type":"PAYLOAD","status":"ACTIVE","operator":null,"country":"US","launch_date":"2024-04-23","launch_site_code":"AFETR","launch_vehicle":null,"mission":null,"orbit_class":"UNKNOWN","rcs_meters":null,"size_class":null,"mass_kg":null,"dimensions":null,"purposes":["comms"],"wikipedia_slug":null,"has_3d_model":false,"image_url":null,"decayed_at":null,"tle_current":{"epoch":"2026-05-24T21:18:07.383744Z","epoch_age_seconds":91556,"freshness":"FRESH","line1":"1 59565U 24076B   26144.88758546 -.00000581  00000+0 -11586-4 0  9997","line2":"2 59565  43.0034 298.9103 0001986 274.0424  86.0201 15.27587283118156","mean_motion":15.27587283,"eccentricity":0.0001986,"inclination_deg":43.0034,"raan_deg":298.9103,"arg_perigee_deg":274.0424,"mean_anomaly_deg":86.0201,"bstar":-1.1586e-5,"rev_number":11815,"period_min":94.26629928288,"perigee_km":481.66466097661,"apogee_km":484.38991543189,"semimajor_km":6861.1642882043,"source":"CELESTRAK","updated_at":"2026-05-25T13:38:18.984407Z"}}}